Location: Writing-on-Stone Provincial Park
(49.0825°N, 111.6163°W)
Time: 22:07:53
(UTC-06:00)

Amateur Radio Satellites - All Passes

Search period start: 16 October 2017 21:37
Search period end: 17 October 2017 21:37
Location: Writing-on-Stone Provincial Park, 49.0825°N, 111.6163°W

Satellite Date Start Highest point End Downlink Frequencies (MHz)
Time Altitude Azimuth
O/OREOS (USA 219) 16 Oct 21:37:59 21:41:33 23° 103° (ESE) 21:45:09 437.305
YUBILEINY 16 Oct 21:50:28 21:59:19 86° 80° (E) 22:08:10 435.215
DELFI C3 16 Oct 21:53:48 21:57:39 64° 74° (ENE) 22:01:33 145.870
BEESAT 2 16 Oct 21:55:38 21:59:06 26° 36° (NE) 22:02:31 435.950
EO-88 16 Oct 22:05:35 22:09:06 46° 72° (ENE) 22:12:38 145.990 - 145.960
Max Valier Satellite 16 Oct 22:05:39 22:09:21 64° 73° (ENE) 22:13:04 145.860
Oscar 11 16 Oct 22:05:44 22:09:21 26° 266° (W) 22:13:00 .
UNISAT 6 16 Oct 22:10:59 22:13:47 16° 88° (E) 22:16:33 437.425
BEESAT 3 16 Oct 22:22:13 22:26:14 84° 232° (SW) 22:30:10 437.485
TIGRISAT 16 Oct 22:26:30 22:29:57 20° 90° (E) 22:33:19 435.000
AO-85 16 Oct 22:34:17 22:38:28 41° 43° (NE) 22:42:57 145.980
FO-29 16 Oct 22:40:18 22:46:52 86° 106° (ESE) 22:54:15 435.910
AO-73 16 Oct 22:41:59 22:42:16 10° 276° (W) 22:42:33 145.935
PRISM 16 Oct 22:56:16 22:59:01 17° 91° (E) 23:01:46 437.425
STRAND 1 16 Oct 22:57:09 23:00:16 16° 305° (NW) 23:03:22 437.568
LO-87 16 Oct 23:08:38 23:11:55 35° 69° (ENE) 23:15:15 145.935 - 145.965
O/OREOS (USA 219) 16 Oct 23:16:14 23:20:40 49° 302° (WNW) 23:25:09 437.305
SPROUT 16 Oct 23:25:02 23:27:06 13° 57° (ENE) 23:29:11 437.525
ESTCUBE 1 16 Oct 23:28:36 23:32:54 46° 69° (ENE) 23:37:13 437.505/2401.250
DELFI C3 16 Oct 23:31:02 23:32:50 13° 271° (W) 23:34:38 145.870
BEESAT 2 16 Oct 23:33:07 23:37:05 53° 237° (WSW) 23:40:59 435.950
VELOX 1 16 Oct 23:38:32 23:40:47 14° 57° (ENE) 23:43:02 145.980
EO-88 16 Oct 23:40:47 23:43:00 15° 269° (W) 23:45:14 145.990 - 145.960
Max Valier Satellite 16 Oct 23:42:05 23:43:35 12° 271° (W) 23:45:06 145.860
UNISAT 6 16 Oct 23:46:20 23:51:01 71° 287° (WNW) 23:55:34 437.425
YUBILEINY 16 Oct 23:48:30 23:55:01 24° 283° (WNW) 00:01:34 435.215
BEESAT 3 17 Oct 00:02:14 00:03:04 11° 251° (WSW) 00:03:54 437.485
TIGRISAT 17 Oct 00:02:23 00:06:58 55° 289° (WNW) 00:11:26 435.000
AO-85 17 Oct 00:14:45 00:18:52 35° 240° (WSW) 00:23:14 145.980
QB50P2 17 Oct 00:21:23 00:24:13 17° 90° (E) 00:27:02 145.880/145.840
AIST 2D 17 Oct 00:23:55 00:27:10 37° 97° (E) 00:30:23 435.315
FO-29 17 Oct 00:26:25 00:31:21 24° 303° (WNW) 00:36:43 435.910
NANOSAT C BR1 17 Oct 00:28:55 00:31:39 16° 90° (E) 00:34:21 145.865
PRISM 17 Oct 00:30:35 00:34:36 52° 289° (WNW) 00:38:36 437.425
DUCHIFAT 1 17 Oct 00:41:42 00:44:48 19° 91° (E) 00:47:53 145.980
LO-87 17 Oct 00:42:47 00:45:26 19° 267° (W) 00:48:08 145.935 - 145.965
50 SAT 17 Oct 00:50:30 00:52:29 15° 63° (ENE) 00:54:28 437.505
DX 1 17 Oct 00:56:24 00:59:40 21° 61° (ENE) 01:02:57 434.975-435.025
SPROUT 17 Oct 00:58:05 01:02:22 86° 257° (WSW) 01:06:42 437.525
O/OREOS (USA 219) 17 Oct 01:00:09 01:01:15 11° 324° (NW) 01:02:23 437.305
ESTCUBE 1 17 Oct 01:06:24 01:09:55 22° 268° (W) 01:13:27 437.505/2401.250
VELOX 1 17 Oct 01:12:13 01:16:35 85° 252° (WSW) 01:21:02 145.980
RS-15 17 Oct 01:19:36 01:30:28 39° 107° (ESE) 01:41:18 29.354- 29.394
UNISAT 6 17 Oct 01:25:15 01:26:51 12° 306° (NW) 01:28:27 437.425
UKube-1 17 Oct 01:28:23 01:32:01 28° 64° (ENE) 01:35:41 .
EO-79 17 Oct 01:32:29 01:36:48 77° 102° (ESE) 01:41:03 145.935-145.965
POLYITAN 1 17 Oct 01:36:04 01:40:24 84° 104° (ESE) 01:44:39 437.675
QB50P2 17 Oct 01:56:09 02:00:22 57° 288° (WNW) 02:04:32 145.880/145.840
AIST 2D 17 Oct 01:57:42 02:00:06 18° 296° (WNW) 02:02:30 435.315
NANOSAT C BR1 17 Oct 02:03:32 02:07:44 58° 288° (WNW) 02:11:54 145.865
DUCHIFAT 1 17 Oct 02:16:37 02:20:44 48° 290° (WNW) 02:24:48 145.980
50 SAT 17 Oct 02:21:26 02:24:32 39° 261° (W) 02:27:38 437.505
M-CUBED/EXP-1 PRIME 17 Oct 02:28:58 02:31:27 18° 100° (E) 02:34:01 437.505
DX 1 17 Oct 02:31:21 02:35:33 49° 260° (W) 02:39:47 434.975-435.025
ITUPSAT 1 17 Oct 02:38:14 02:42:01 23° 60° (ENE) 02:45:48 437.325
SPROUT 17 Oct 02:38:52 02:38:56 10° 274° (W) 02:39:00 437.525
BUGSAT 1 17 Oct 02:39:49 02:44:06 85° 103° (ESE) 02:48:19 437.445
MOZHAYETS 4 17 Oct 02:45:51 02:49:44 27° 63° (ENE) 02:53:37
Oscar 19 17 Oct 02:50:59 02:56:02 53° 100° (E) 03:01:01 437.125/150
Gurwin Techsat 1B 17 Oct 02:51:16 02:56:15 39° 97° (E) 03:01:11 435.225
VELOX 1 17 Oct 02:53:03 02:53:44 10° 274° (W) 02:54:26 145.980
BEESAT 17 Oct 02:55:50 03:00:05 32° 64° (ENE) 03:04:20 436.000
UKube-1 17 Oct 03:03:59 03:07:56 35° 262° (W) 03:11:55 .
EO-79 17 Oct 03:09:39 03:12:00 15° 302° (WNW) 03:14:19 145.935-145.965
POLYITAN 1 17 Oct 03:13:24 03:15:33 14° 303° (WNW) 03:17:41 437.675
RS-15 17 Oct 03:29:42 03:42:06 79° 312° (NW) 03:54:24 29.354- 29.394
M-CUBED/EXP-1 PRIME 17 Oct 04:02:51 04:06:01 37° 296° (WNW) 04:09:20 437.505
AO-7 17 Oct 04:13:01 04:20:25 34° 95° (E) 04:27:45 .
ITUPSAT 1 17 Oct 04:14:47 04:19:30 54° 259° (W) 04:24:15 437.325
BUGSAT 1 17 Oct 04:16:47 04:18:50 13° 303° (WNW) 04:20:52 437.445
MOZHAYETS 4 17 Oct 04:22:17 04:26:42 42° 262° (W) 04:31:08
CUBESAT XI-V 17 Oct 04:23:01 04:27:30 52° 70° (ENE) 04:32:00 437.345
Oscar 19 17 Oct 04:30:52 04:35:04 26° 299° (WNW) 04:39:14 437.125/150
Gurwin Techsat 1B 17 Oct 04:31:20 04:36:09 36° 296° (WNW) 04:40:58 435.225
BEESAT 17 Oct 04:33:23 04:37:47 36° 263° (W) 04:42:14 436.000
KKS-1 17 Oct 04:40:53 04:44:39 28° 64° (ENE) 04:48:25 437.445
ITAMSAT 1 17 Oct 04:54:22 04:59:28 48° 100° (E) 05:04:30 435.822/435.867
NO-84 17 Oct 04:55:06 04:58:28 23° 133° (SE) 05:01:47 435.350 FM
STARS 17 Oct 05:24:20 05:28:12 31° 65° (ENE) 05:32:07 437.465
DOVE 4 17 Oct 05:35:52 05:39:25 20° 91° (E) 05:43:03 437.250
RS-15 17 Oct 05:45:11 05:56:43 42° 342° (NNW) 06:08:00 29.354- 29.394
CUBESAT XI-V 17 Oct 06:01:40 06:05:10 21° 269° (W) 06:08:41 437.345
O/OREOS (USA 219) 17 Oct 06:04:21 06:07:18 16° 43° (NE) 06:10:14 437.305
AO-7 17 Oct 06:05:31 06:13:43 66° 296° (WNW) 06:21:54 .
KKS-1 17 Oct 06:16:57 06:21:04 37° 262° (W) 06:25:14 437.445
LilacSat-2 17 Oct 06:22:00 06:23:03 11° 88° (E) 06:24:07 437.200
XW-2F 17 Oct 06:25:29 06:25:53 10° 87° (E) 06:26:19 145.980 - 146.000
NO-84 17 Oct 06:31:16 06:35:34 86° 331° (NNW) 06:39:40 435.350 FM
XW-2D 17 Oct 06:33:20 06:35:25 14° 90° (E) 06:37:29 145.860 - 145.880
ITAMSAT 1 17 Oct 06:34:15 06:38:43 29° 298° (WNW) 06:43:10 435.822/435.867
CUTE-I 17 Oct 06:37:24 06:40:54 17° 88° (E) 06:44:24 437.470
XW-2B 17 Oct 06:46:10 06:48:52 19° 92° (E) 06:51:33 145.730 - 145.750
NUDT-PHONESAT 17 Oct 06:49:16 06:51:21 14° 90° (E) 06:53:25 437.300
STRAND 1 17 Oct 06:58:14 07:02:44 32° 63° (ENE) 07:07:16 437.568
STARS 17 Oct 07:00:35 07:04:31 32° 264° (W) 07:08:30 437.465
XW-2C 17 Oct 07:08:39 07:12:05 32° 96° (E) 07:15:28 145.795 - 145.815
DOVE 4 17 Oct 07:12:40 07:17:26 63° 288° (WNW) 07:22:27 437.250
FO-29 17 Oct 07:17:47 07:19:05 11° 46° (NE) 07:20:24 435.910
SO-50 17 Oct 07:32:44 07:34:37 12° 109° (ESE) 07:36:30 436.795
O/OREOS (USA 219) 17 Oct 07:42:47 07:47:26 88° 64° (ENE) 07:52:02 437.305
LilacSat-2 17 Oct 07:54:02 07:57:49 70° 286° (WNW) 08:01:33 437.200
HO-68 17 Oct 07:54:57 08:01:25 34° 95° (E) 08:07:50 435.675
XW-2F 17 Oct 07:56:47 08:00:31 74° 286° (WNW) 08:04:13 145.980 - 146.000
AO-7 17 Oct 07:59:22 08:05:04 21° 319° (NW) 08:10:46 .
KAITUO 1B 17 Oct 08:01:25 08:05:07 83° 285° (WNW) 08:08:48 145.475/437.950
RS-15 17 Oct 08:01:33 08:12:57 41° 16° (NNE) 08:23:52 29.354- 29.394
XW-2D 17 Oct 08:06:15 08:09:55 52° 288° (WNW) 08:13:33 145.860 - 145.880
NO-84 17 Oct 08:09:25 08:13:21 37° 350° (N) 08:17:03 435.350 FM
CUTE 1.7 + AOD 2 17 Oct 08:10:38 08:14:32 36° 97° (E) 08:18:25 437.475
CUTE-I 17 Oct 08:16:12 08:21:35 78° 287° (WNW) 08:26:57 437.470
XW-2B 17 Oct 08:19:41 08:23:13 39° 290° (WNW) 08:26:42 145.730 - 145.750
NUDT-PHONESAT 17 Oct 08:21:56 08:25:30 49° 288° (WNW) 08:29:02 437.300
SEEDS 17 Oct 08:25:01 08:28:48 32° 96° (E) 08:32:33 437.485
CUBEBUG 2 17 Oct 08:32:51 08:37:19 39° 97° (E) 08:41:37 437.445
STRAND 1 17 Oct 08:36:57 08:41:48 42° 262° (W) 08:46:42 437.568
PCSat 17 Oct 08:40:30 08:42:53 13° 103° (ESE) 08:45:16 145.827
XW-2C 17 Oct 08:43:08 08:46:07 23° 295° (WNW) 08:49:06 145.795 - 145.815
AO-73 17 Oct 08:45:48 08:48:31 16° 88° (E) 08:51:11 145.935
DOVE 4 17 Oct 08:53:02 08:54:16 11° 306° (NW) 08:55:32 437.250
FO-29 17 Oct 08:57:47 09:02:51 55° 69° (ENE) 09:08:20 435.910
AAUSAT CUBESAT 2 17 Oct 09:00:03 09:03:50 34° 96° (E) 09:07:37 437.432
YUBILEINY 17 Oct 09:03:08 09:09:06 21° 75° (ENE) 09:15:05 435.215
ZACube-1 17 Oct 09:04:50 09:08:37 27° 93° (E) 09:12:19 437.345
SO-50 17 Oct 09:09:51 09:14:20 83° 128° (SE) 09:18:52 436.795
UNISAT 6 17 Oct 09:13:08 09:16:47 23° 62° (ENE) 09:20:28 437.425
UWE-3 17 Oct 09:18:35 09:23:11 64° 101° (E) 09:27:36 435.000/436.395/437.385
XW-2A 17 Oct 09:18:36 09:21:59 78° 101° (E) 09:25:19 145.665 - 145.685
O/OREOS (USA 219) 17 Oct 09:24:12 09:26:07 12° 263° (W) 09:28:01 437.305
TIGRISAT 17 Oct 09:28:33 09:32:31 29° 64° (ENE) 09:36:33 435.000
HO-68 17 Oct 09:42:26 09:49:29 58° 295° (WNW) 09:56:31 435.675
CUTE 1.7 + AOD 2 17 Oct 09:46:45 09:50:14 26° 295° (WNW) 09:53:42 437.475
NO-84 17 Oct 09:47:36 09:51:24 38° 11° (N) 09:54:56 435.350 FM
Oscar 11 17 Oct 09:47:50 09:51:58 43° 98° (E) 09:56:04 .
PRISM 17 Oct 09:49:11 09:52:17 22° 63° (ENE) 09:55:25 437.425
CUTE-I 17 Oct 09:57:47 10:00:48 15° 307° (NW) 10:03:49 437.470
SEEDS 17 Oct 10:00:51 10:04:24 28° 294° (WNW) 10:07:57 437.485
CUBEBUG 2 17 Oct 10:09:43 10:13:46 29° 296° (WNW) 10:17:44 437.445
RS-15 17 Oct 10:15:26 10:27:37 77° 47° (NE) 10:39:06 29.354- 29.394
PCSat 17 Oct 10:19:57 10:25:21 75° 121° (ESE) 10:30:47 145.827
AO-73 17 Oct 10:20:49 10:25:13 63° 288° (WNW) 10:29:28 145.935
Tancredo 1 17 Oct 10:30:12 10:31:16 14° 145° (SE) 10:32:21 437.200
AAUSAT CUBESAT 2 17 Oct 10:35:44 10:39:10 26° 295° (WNW) 10:42:35 437.432
ZACube-1 17 Oct 10:40:52 10:45:00 37° 292° (WNW) 10:49:00 437.345
FO-29 17 Oct 10:44:23 10:48:29 23° 270° (W) 10:52:48 435.910
UNISAT 6 17 Oct 10:48:39 10:53:10 52° 261° (W) 10:57:46 437.425
SO-50 17 Oct 10:51:44 10:55:21 23° 329° (NNW) 10:58:59 436.795
EO-79 17 Oct 10:55:22 10:57:25 13° 57° (ENE) 10:59:28 145.935-145.965
YUBILEINY 17 Oct 10:55:54 11:04:36 86° 98° (E) 11:13:22 435.215
UWE-3 17 Oct 10:55:59 10:59:08 19° 300° (WNW) 11:02:14 435.000/436.395/437.385
POLYITAN 1 17 Oct 10:58:47 11:01:05 14° 58° (ENE) 11:03:24 437.675
DELFI C3 17 Oct 11:00:57 11:04:52 60° 101° (E) 11:08:47 145.870
AIST 2D 17 Oct 11:01:55 11:04:53 26° 68° (ENE) 11:07:51 435.315
EO-88 17 Oct 11:03:36 11:06:56 33° 97° (E) 11:10:15 145.990 - 145.960
TIGRISAT 17 Oct 11:04:42 11:09:03 40° 263° (W) 11:13:30 435.000
Max Valier Satellite 17 Oct 11:05:08 11:08:44 48° 99° (E) 11:12:17 145.860
QB50P2 17 Oct 11:17:33 11:20:52 22° 63° (ENE) 11:24:12 145.880/145.840
PRISM 17 Oct 11:23:29 11:27:19 42° 261° (W) 11:31:12 437.425
Oscar 11 17 Oct 11:24:28 11:27:52 23° 297° (WNW) 11:31:15 .
NANOSAT C BR1 17 Oct 11:24:32 11:27:46 21° 62° (ENE) 11:31:02 145.865
NO-84 17 Oct 11:25:12 11:29:05 79° 212° (SSW) 11:32:38 435.350 FM
HO-68 17 Oct 11:31:44 11:35:48 16° 317° (NW) 11:39:53 435.675
ISS 17 Oct 11:34:00 11:34:58 11° 135° (SE) 11:35:56 437.550
DUCHIFAT 1 17 Oct 11:37:01 11:40:28 25° 64° (ENE) 11:43:57 145.980
BUGSAT 1 17 Oct 12:00:11 12:02:17 14° 57° (ENE) 12:04:23 437.445
Tancredo 1 17 Oct 12:01:00 12:02:50 71° 343° (NNW) 12:04:42 437.200
LO-87 17 Oct 12:04:36 12:07:40 25° 95° (E) 12:10:42 145.935 - 145.965
PCSat 17 Oct 12:04:42 12:09:18 27° 323° (NW) 12:13:55 145.827
EO-79 17 Oct 12:28:16 12:32:33 86° 260° (W) 12:36:52 145.935-145.965
RS-15 17 Oct 12:28:39 12:39:10 39° 253° (WSW) 12:49:12 29.354- 29.394
POLYITAN 1 17 Oct 12:31:59 12:36:17 80° 258° (WSW) 12:40:36 437.675
Oscar 19 17 Oct 12:34:32 12:38:13 20° 58° (ENE) 12:41:54 437.125/150
AIST 2D 17 Oct 12:35:05 12:38:01 24° 265° (W) 12:40:58 435.315
SO-50 17 Oct 12:35:45 12:37:26 12° 354° (N) 12:39:08 436.795
DELFI C3 17 Oct 12:36:49 12:39:11 16° 299° (WNW) 12:41:34 145.870
EO-88 17 Oct 12:37:37 12:40:25 21° 295° (WNW) 12:43:12 145.990 - 145.960
Gurwin Techsat 1B 17 Oct 12:39:08 12:42:25 17° 55° (NE) 12:45:44 435.225
Max Valier Satellite 17 Oct 12:39:52 12:42:13 16° 298° (WNW) 12:44:33 145.860
SPROUT 17 Oct 12:41:15 12:43:07 12° 87° (E) 12:44:58 437.525
nSIGHT-1 17 Oct 12:43:39 12:46:40 40° 149° (SSE) 12:49:42 .
QB50P2 17 Oct 12:52:18 12:56:24 45° 261° (W) 13:00:32 145.880/145.840
ESTCUBE 1 17 Oct 12:53:15 12:57:41 57° 101° (E) 13:02:06 437.505/2401.250
YUBILEINY 17 Oct 12:55:36 13:02:37 26° 302° (WNW) 13:09:41 435.215
NANOSAT C BR1 17 Oct 12:59:06 13:03:12 47° 261° (W) 13:07:21 145.865
VELOX 1 17 Oct 12:59:26 13:01:41 14° 88° (E) 13:03:56 145.980
NO-84 17 Oct 13:03:51 13:05:49 14° 233° (SW) 13:07:42 435.350 FM
ISS 17 Oct 13:07:39 13:10:51 54° 152° (SSE) 13:14:04 437.550
DUCHIFAT 1 17 Oct 13:11:58 13:15:57 39° 262° (W) 13:19:58 145.980
M-CUBED/EXP-1 PRIME 17 Oct 13:18:11 13:21:29 47° 65° (ENE) 13:24:40 437.505
AO-7 17 Oct 13:27:17 13:32:58 21° 41° (NE) 13:38:39 .
BUGSAT 1 17 Oct 13:32:50 13:37:01 82° 256° (WSW) 13:41:17 437.445
Tancredo 1 17 Oct 13:33:01 13:34:44 32° 1° (N) 13:36:27 437.200
LO-87 17 Oct 13:37:55 13:41:05 28° 292° (WNW) 13:44:13 145.935 - 145.965
BEESAT 3 17 Oct 13:52:07 13:55:55 42° 121° (ESE) 13:59:45 437.485
PCSat 17 Oct 13:52:20 13:54:37 13° 349° (NNW) 13:56:56 145.827
EO-79 17 Oct 14:08:42 14:08:58 10° 274° (W) 14:09:15 145.935-145.965
Oscar 19 17 Oct 14:11:51 14:17:01 73° 257° (WSW) 14:22:13 437.125/150
SPROUT 17 Oct 14:15:14 14:19:33 78° 287° (WNW) 14:23:51 437.525
DX 1 17 Oct 14:15:43 14:19:02 21° 93° (E) 14:22:20 434.975-435.025
Gurwin Techsat 1B 17 Oct 14:16:20 14:21:39 88° 74° (ENE) 14:27:01 435.225
SO-50 17 Oct 14:17:09 14:19:49 15° 19° (NNE) 14:22:29 436.795
nSIGHT-1 17 Oct 14:19:43 14:22:53 62° 348° (NNW) 14:26:05 .
ESTCUBE 1 17 Oct 14:30:53 14:34:06 20° 300° (WNW) 14:37:20 437.505/2401.250
AO-85 17 Oct 14:33:28 14:36:40 25° 116° (ESE) 14:39:57 145.980
VELOX 1 17 Oct 14:34:13 14:38:40 76° 286° (WNW) 14:43:05 145.980
ITAMSAT 1 17 Oct 14:39:02 14:42:42 20° 56° (ENE) 14:46:22 435.822/435.867
ISS 17 Oct 14:44:09 14:47:22 56° 352° (N) 14:50:36 437.550
UKube-1 17 Oct 14:46:35 14:50:17 27° 95° (E) 14:53:57 .
M-CUBED/EXP-1 PRIME 17 Oct 14:54:33 14:56:10 13° 262° (W) 14:57:47 437.505
BEESAT 2 17 Oct 15:04:31 15:08:31 70° 126° (SE) 15:12:34 435.950
Tancredo 1 17 Oct 15:04:44 15:06:32 87° 207° (SSW) 15:08:21 437.200
50 SAT 17 Oct 15:08:18 15:11:39 85° 279° (W) 15:14:57 437.505
AO-7 17 Oct 15:16:08 15:24:19 66° 64° (ENE) 15:32:31 .
BEESAT 3 17 Oct 15:29:59 15:33:34 30° 321° (NW) 15:37:11 437.485
PCSat 17 Oct 15:37:51 15:40:31 14° 16° (NNE) 15:43:10 145.827
DX 1 17 Oct 15:51:15 15:55:28 48° 291° (WNW) 15:59:39 434.975-435.025
SPROUT 17 Oct 15:53:20 15:54:42 11° 305° (NW) 15:56:04 437.525
Oscar 19 17 Oct 15:56:00 15:57:15 11° 275° (W) 15:58:30 437.125/150
nSIGHT-1 17 Oct 15:56:15 15:59:25 56° 8° (N) 16:02:35 .
SO-50 17 Oct 15:57:03 16:01:25 42° 42° (NE) 16:05:51 436.795
Gurwin Techsat 1B 17 Oct 15:59:24 16:02:20 15° 273° (W) 16:05:18 435.225
ITUPSAT 1 17 Oct 16:11:15 16:15:24 28° 95° (E) 16:19:31 437.325
VELOX 1 17 Oct 16:12:52 16:14:20 11° 305° (NW) 16:15:48 145.980
MOZHAYETS 4 17 Oct 16:12:58 16:17:09 33° 96° (E) 16:21:16
AO-85 17 Oct 16:13:06 16:16:50 42° 317° (NW) 16:20:45 145.980
ITAMSAT 1 17 Oct 16:16:24 16:21:36 76° 256° (WSW) 16:26:50 435.822/435.867
ISS 17 Oct 16:20:50 16:24:06 63° 12° (NNE) 16:27:21 437.550
UKube-1 17 Oct 16:22:24 16:26:22 36° 293° (WNW) 16:30:19 .
BEESAT 17 Oct 16:28:47 16:33:20 41° 98° (E) 16:37:50 436.000
BEESAT 2 17 Oct 16:43:26 16:46:40 22° 326° (NNW) 16:49:54 435.950
DOVE 4 17 Oct 16:45:39 16:49:08 26° 64° (ENE) 16:52:43 437.250
HO-68 17 Oct 16:46:36 16:48:34 11° 36° (NE) 16:50:32 435.675
LilacSat-2 17 Oct 17:08:01 17:09:21 12° 59° (ENE) 17:10:41 437.200
AO-7 17 Oct 17:10:17 17:17:37 34° 265° (W) 17:25:00 .
XW-2F 17 Oct 17:10:22 17:11:09 11° 58° (ENE) 17:11:55 145.980 - 146.000
BEESAT 3 17 Oct 17:11:19 17:12:21 11° 343° (NNW) 17:13:24 437.485
XW-2D 17 Oct 17:18:43 17:20:46 14° 61° (ENE) 17:22:48 145.860 - 145.880
PCSat 17 Oct 17:20:45 17:25:39 33° 40° (NE) 17:30:31 145.827
XW-2B 17 Oct 17:31:24 17:34:00 18° 63° (ENE) 17:36:37 145.730 - 145.750
nSIGHT-1 17 Oct 17:32:35 17:35:44 53° 208° (SSW) 17:38:52 .
NUDT-PHONESAT 17 Oct 17:32:35 17:34:29 14° 61° (ENE) 17:36:23 437.300
SO-50 17 Oct 17:37:39 17:41:50 35° 241° (WSW) 17:46:03 436.795
ITUPSAT 1 17 Oct 17:48:50 17:53:21 41° 293° (WNW) 17:57:50 437.325
MOZHAYETS 4 17 Oct 17:50:10 17:54:17 32° 294° (WNW) 17:58:20
CUBESAT XI-V 17 Oct 17:52:20 17:56:56 73° 102° (ESE) 18:01:31 437.345
XW-2C 17 Oct 17:53:34 17:56:54 29° 68° (ENE) 18:00:14 145.795 - 145.815
AO-85 17 Oct 17:56:22 17:58:20 13° 341° (NNW) 18:00:20 145.980
ISS 17 Oct 17:57:24 18:00:30 40° 211° (SSW) 18:03:37 437.550
ITAMSAT 1 17 Oct 18:00:17 18:01:57 11° 275° (W) 18:03:39 435.822/435.867
CUTE-I 17 Oct 18:02:42 18:07:39 41° 66° (ENE) 18:12:39 437.470
KKS-1 17 Oct 18:03:26 18:07:24 30° 96° (E) 18:11:20 437.445
BEESAT 17 Oct 18:06:51 18:10:58 29° 297° (WNW) 18:15:03 436.000
DOVE 4 17 Oct 18:22:50 18:26:42 36° 264° (W) 18:30:43 437.250
HO-68 17 Oct 18:27:52 18:34:24 40° 59° (ENE) 18:40:58 435.675
LilacSat-2 17 Oct 18:39:12 18:43:03 82° 256° (WSW) 18:46:54 437.200
XW-2F 17 Oct 18:40:50 18:44:38 89° 249° (WSW) 18:48:26 145.980 - 146.000
KAITUO 1B 17 Oct 18:44:37 18:48:21 81° 76° (ENE) 18:52:05 145.475/437.950
STARS 17 Oct 18:45:12 18:49:15 33° 97° (E) 18:53:15 437.465
UWE-3 17 Oct 18:45:27 18:47:39 13° 56° (NE) 18:49:50 435.000/436.395/437.385
XW-2D 17 Oct 18:50:43 18:54:30 62° 259° (W) 18:58:16 145.860 - 145.880
PCSat 17 Oct 19:04:02 19:09:22 57° 241° (WSW) 19:14:38 145.827
NUDT-PHONESAT 17 Oct 19:04:11 19:07:53 62° 258° (WSW) 19:11:36 437.300
XW-2B 17 Oct 19:04:13 19:07:53 46° 261° (W) 19:11:34 145.730 - 145.750
YUBILEINY 17 Oct 19:05:43 19:10:14 15° 46° (NE) 19:14:45 435.215
CUTE 1.7 + AOD 2 17 Oct 19:06:47 19:10:47 43° 70° (ENE) 19:14:49 437.475
nSIGHT-1 17 Oct 19:10:34 19:11:26 11° 225° (SW) 19:12:17 .
SEEDS 17 Oct 19:20:13 19:24:05 37° 69° (ENE) 19:27:57 437.485
XW-2C 17 Oct 19:27:52 19:31:05 25° 266° (W) 19:34:18 145.795 - 145.815
CUBESAT XI-V 17 Oct 19:30:52 19:33:47 17° 301° (WNW) 19:36:41 437.345
CUBEBUG 2 17 Oct 19:34:09 19:38:40 51° 70° (ENE) 19:43:18 437.445
KKS-1 17 Oct 19:39:54 19:43:59 35° 294° (WNW) 19:48:03 437.445
CUTE-I 17 Oct 19:43:02 19:47:48 33° 265° (W) 19:52:36 437.470
AO-73 17 Oct 19:44:33 19:48:04 22° 62° (ENE) 19:51:35 145.935
XW-2A 17 Oct 19:53:05 19:56:23 47° 72° (ENE) 19:59:42 145.665 - 145.685
AAUSAT CUBESAT 2 17 Oct 19:53:40 19:57:29 38° 69° (ENE) 20:01:18 437.432
ZACube-1 17 Oct 20:03:51 20:08:01 35° 67° (ENE) 20:12:12 437.345
BEESAT 2 17 Oct 20:04:49 20:05:28 10° 14° (NNE) 20:06:07 435.950
HO-68 17 Oct 20:15:02 20:21:59 52° 260° (W) 20:29:00 435.675
UWE-3 17 Oct 20:18:41 20:23:20 82° 75° (ENE) 20:28:03 435.000/436.395/437.385
STARS 17 Oct 20:21:36 20:25:31 31° 295° (WNW) 20:29:26 437.465
BEESAT 3 17 Oct 20:27:53 20:30:51 19° 31° (NNE) 20:33:47 437.485
STRAND 1 17 Oct 20:42:49 20:47:51 49° 100° (E) 20:52:50 437.568
CUTE 1.7 + AOD 2 17 Oct 20:43:33 20:46:49 21° 268° (W) 20:50:06 437.475
Oscar 11 17 Oct 20:46:05 20:50:19 55° 71° (ENE) 20:54:34 .
SEEDS 17 Oct 20:56:29 20:59:53 24° 267° (W) 21:03:18 437.485
YUBILEINY 17 Oct 21:00:57 21:09:33 54° 72° (ENE) 21:18:08 435.215
CUBEBUG 2 17 Oct 21:11:57 21:15:34 22° 269° (W) 21:19:15 437.445
AO-85 17 Oct 21:19:26 21:22:40 20° 30° (NNE) 21:26:04 145.980
AO-73 17 Oct 21:19:30 21:23:58 52° 261° (W) 21:28:27 145.935
XW-2A 17 Oct 21:27:39 21:29:22 13° 270° (W) 21:31:04 145.665 - 145.685
AAUSAT CUBESAT 2 17 Oct 21:29:47 21:33:04 23° 267° (W) 21:36:21 437.432
